TimeMDT,TemperatureF,Dew PointF,Humidity,Sea Level PressureIn,VisibilityMPH,Wind Direction,Wind SpeedMPH,Gust SpeedMPH,PrecipitationIn,Events,Conditions,WindDirDegrees,DateUTC
12:56 AM,37.0,33.1,86,29.98,-9999.0,NW,11.5,-,N/A,,Unknown,310,2013-10-17 06:56:00
1:56 AM,37.9,35.1,89,29.99,-9999.0,NNW,15.0,-,N/A,,Unknown,330,2013-10-17 07:56:00
2:56 AM,39.0,37.0,93,30.01,-9999.0,NNW,23.0,29.9,N/A,,Unknown,330,2013-10-17 08:56:00
3:56 AM,36.0,35.1,97,30.04,-9999.0,NW,16.1,26.5,0.01,,Unknown,320,2013-10-17 09:56:00
4:56 AM,35.1,34.0,96,30.05,-9999.0,NW,19.6,-,0.03,,Unknown,320,2013-10-17 10:56:00
5:56 AM,35.1,34.0,96,30.08,-9999.0,NNW,20.7,29.9,0.04,,Unknown,330,2013-10-17 11:56:00
6:56 AM,35.1,33.1,92,30.10,-9999.0,NW,20.7,25.3,0.01,,Unknown,320,2013-10-17 12:56:00
7:56 AM,34.0,33.1,96,30.13,-9999.0,NW,18.4,24.2,N/A,,Unknown,320,2013-10-17 13:56:00
8:56 AM,35.1,32.0,89,30.15,-9999.0,NW,17.3,26.5,N/A,,Unknown,320,2013-10-17 14:56:00
9:56 AM,37.0,30.9,79,30.16,-9999.0,NNW,21.9,28.8,N/A,,Unknown,330,2013-10-17 15:56:00
10:56 AM,39.0,28.9,67,30.17,-9999.0,NNW,17.3,-,N/A,,Unknown,340,2013-10-17 16:56:00
11:56 AM,39.0,28.0,65,30.17,-9999.0,NW,20.7,24.2,N/A,,Unknown,320,2013-10-17 17:56:00
12:56 PM,39.0,25.0,57,30.16,-9999.0,NNW,16.1,-,N/A,,Unknown,330,2013-10-17 18:56:00
1:56 PM,39.0,26.1,60,30.14,-9999.0,NW,15.0,-,N/A,,Unknown,320,2013-10-17 19:56:00
2:56 PM,39.9,25.0,55,30.14,-9999.0,NW,16.1,-,N/A,,Unknown,320,2013-10-17 20:56:00
3:56 PM,41.0,26.1,55,30.13,-9999.0,NW,15.0,-,N/A,,Unknown,310,2013-10-17 21:56:00
4:56 PM,41.0,25.0,53,30.13,-9999.0,NW,9.2,-,N/A,,Unknown,320,2013-10-17 22:56:00
5:56 PM,36.0,27.0,70,30.14,-9999.0,West,4.6,-,N/A,,Unknown,280,2013-10-17 23:56:00
6:56 PM,35.1,26.1,70,30.15,-9999.0,West,4.6,-,N/A,,Unknown,280,2013-10-18 00:56:00
7:56 PM,35.1,27.0,72,30.14,-9999.0,West,6.9,-,N/A,,Unknown,280,2013-10-18 01:56:00
8:56 PM,34.0,27.0,75,30.15,-9999.0,West,6.9,-,N/A,,Unknown,280,2013-10-18 02:56:00
9:56 PM,33.1,27.0,78,30.15,-9999.0,WNW,6.9,-,N/A,,Unknown,290,2013-10-18 03:56:00
10:56 PM,34.0,27.0,75,30.13,-9999.0,West,8.1,-,N/A,,Unknown,280,2013-10-18 04:56:00
11:56 PM,33.1,26.1,75,30.12,-9999.0,West,8.1,-,N/A,,Unknown,280,2013-10-18 05:56:00